• en Suisse
  • Liste des pays
  • À 7 jours
  • Température de l'eau
  • Carte satellitaire
  • Carte météo
  • Widgets météo
  • user-avatar
    Se connecter

    Météo par heure à Invercargill

    Ce jour, 22 Novembre, Mercredi

    Heure Température Précipitation Vent Pression Humidité
    00:00 +9°C° 0 mm 0 m/s 766 mmHg 98%
    01:00 +10°C° 0 mm 1 m/s 766 mmHg 98%
    02:00 +10°C° 0 mm 1 m/s 766 mmHg 98%
    03:00 +10°C° 0 mm 1 m/s 766 mmHg 98%
    04:00 +11°C° 0 mm 1 m/s 766 mmHg 97%
    05:00 +11°C° 0 mm 1 m/s 766 mmHg 95%
    06:00 +14°C° 0 mm 1 m/s 766 mmHg 86%
    07:00 +16°C° 0 mm 1 m/s 766 mmHg 76%
    08:00 +19°C° 0 mm 1 m/s 766 mmHg 66%
    09:00 +20°C° 0 mm 2 m/s 766 mmHg 62%
    10:00 +21°C° 0 mm 2 m/s 766 mmHg 58%
    11:00 +22°C° 0 mm 3 m/s 766 mmHg 54%
    12:00 +22°C° 0 mm 3 m/s 766 mmHg 54%
    13:00 +22°C° 0 mm 3 m/s 766 mmHg 54%
    14:00 +24°C° 0 mm 3 m/s 766 mmHg 54%
    15:00 +22°C° 0 mm 3 m/s 766 mmHg 58%
    16:00 +21°C° 0 mm 3 m/s 766 mmHg 63%
    17:00 +20°C° 0 mm 3 m/s 766 mmHg 68%
    18:00 +18°C° 0 mm 2 m/s 767 mmHg 78%
    19:00 +16°C° 0 mm 2 m/s 767 mmHg 87%
    20:00 +14°C° 0 mm 1 m/s 767 mmHg 97%
    21:00 +13°C° 0 mm 1 m/s 768 mmHg 97%
    22:00 +13°C° 0 mm 1 m/s 768 mmHg 98%
    23:00 +12°C° 0 mm 1 m/s 768 mmHg 99%

    Demain, 23 Novembre, Jeudi

    Heure Température Précipitation Vent Pression Humidité
    00:00 +12°C° 0 mm 1 m/s 768 mmHg 99%
    01:00 +12°C° 0 mm 1 m/s 768 mmHg 99%
    02:00 +12°C° 0 mm 1 m/s 768 mmHg 99%
    03:00 +12°C° 0 mm 1 m/s 768 mmHg 98%
    04:00 +12°C° 0 mm 1 m/s 768 mmHg 98%
    05:00 +13°C° 0 mm 1 m/s 768 mmHg 97%
    06:00 +15°C° 0 mm 1 m/s 768 mmHg 86%
    07:00 +19°C° 0 mm 1 m/s 768 mmHg 76%
    08:00 +22°C° 0 mm 1 m/s 768 mmHg 65%
    09:00 +23°C° 0 mm 1 m/s 768 mmHg 60%
    10:00 +24°C° 0 mm 2 m/s 768 mmHg 55%
    11:00 +26°C° 0 mm 2 m/s 768 mmHg 51%
    12:00 +26°C° 0 mm 2 m/s 768 mmHg 50%
    13:00 +26°C° 0 mm 3 m/s 768 mmHg 50%
    14:00 +26°C° 0 mm 3 m/s 767 mmHg 49%
    15:00 +24°C° 0 mm 3 m/s 767 mmHg 54%
    16:00 +22°C° 0 mm 3 m/s 767 mmHg 58%
    17:00 +21°C° 0 mm 2 m/s 767 mmHg 63%
    18:00 +19°C° 0 mm 2 m/s 767 mmHg 72%
    19:00 +16°C° 0 mm 1 m/s 768 mmHg 82%
    20:00 +14°C° 0 mm 1 m/s 768 mmHg 91%
    21:00 +14°C° 0 mm 1 m/s 768 mmHg 92%
    22:00 +13°C° 0 mm 1 m/s 768 mmHg 93%
    23:00 +13°C° 0 mm 1 m/s 768 mmHg 94%

    Après-demain, 24 Novembre, Vendredi

    Heure Température Précipitation Vent Pression Humidité
    00:00 +13°C° 0 mm 1 m/s 768 mmHg 95%
    01:00 +13°C° 0 mm 1 m/s 768 mmHg 96%
    02:00 +12°C° 0 mm 1 m/s 768 mmHg 97%
    03:00 +13°C° 0 mm 1 m/s 768 mmHg 96%
    04:00 +13°C° 0 mm 1 m/s 768 mmHg 95%
    05:00 +13°C° 0 mm 1 m/s 768 mmHg 94%
    06:00 +15°C° 0 mm 1 m/s 768 mmHg 85%
    07:00 +18°C° 0 mm 1 m/s 768 mmHg 76%
    08:00 +19°C° 0 mm 1 m/s 768 mmHg 67%
    09:00 +21°C° 0 mm 1 m/s 768 mmHg 60%
    10:00 +23°C° 0 mm 1 m/s 768 mmHg 53%
    11:00 +24°C° 0 mm 1 m/s 767 mmHg 46%
    12:00 +24°C° 0 mm 2 m/s 767 mmHg 47%
    13:00 +24°C° 0 mm 3 m/s 767 mmHg 48%
    14:00 +22°C° 0 mm 3 m/s 767 mmHg 49%
    15:00 +21°C° 0 mm 3 m/s 767 mmHg 53%
    16:00 +21°C° 0 mm 3 m/s 767 mmHg 57%
    17:00 +20°C° 0 mm 3 m/s 767 mmHg 61%
    18:00 +18°C° 0 mm 2 m/s 767 mmHg 69%
    19:00 +16°C° 0 mm 2 m/s 768 mmHg 77%
    20:00 +15°C° 0 mm 1 m/s 768 mmHg 85%
    21:00 +14°C° 0 mm 1 m/s 768 mmHg 87%
    22:00 +14°C° 0 mm 1 m/s 768 mmHg 90%
    23:00 +13°C° 0 mm 1 m/s 769 mmHg 92%

    25 Novembre, Samedi

    Heure Température Précipitation Vent Pression Humidité
    00:00 +13°C° 0,1 mm 1 m/s 768 mmHg 92%
    01:00 +13°C° 0,1 mm 1 m/s 768 mmHg 93%
    02:00 +12°C° 0,1 mm 1 m/s 768 mmHg 93%
    03:00 +13°C° 0,2 mm 1 m/s 768 mmHg 93%
    04:00 +13°C° 0,2 mm 1 m/s 768 mmHg 94%
    05:00 +13°C° 0,2 mm 1 m/s 768 mmHg 94%
    06:00 +14°C° 0,1 mm 1 m/s 769 mmHg 91%
    07:00 +15°C° 0,1 mm 1 m/s 769 mmHg 88%
    08:00 +16°C° 0,1 mm 0 m/s 769 mmHg 84%
    09:00 +20°C° 0 mm 1 m/s 769 mmHg 74%
    10:00 +22°C° 0 mm 1 m/s 769 mmHg 64%
    11:00 +24°C° 0 mm 2 m/s 768 mmHg 54%
    12:00 +24°C° 0,3 mm 2 m/s 768 mmHg 57%
    13:00 +24°C° 0,3 mm 2 m/s 768 mmHg 61%
    14:00 +24°C° 0,3 mm 2 m/s 768 mmHg 64%
    15:00 +23°C° 0,3 mm 2 m/s 768 mmHg 67%
    16:00 +21°C° 0,3 mm 2 m/s 768 mmHg 69%
    17:00 +21°C° 0,3 mm 2 m/s 768 mmHg 72%
    18:00 +19°C° 0,1 mm 2 m/s 768 mmHg 77%
    19:00 +17°C° 0,1 mm 2 m/s 768 mmHg 83%
    20:00 +15°C° 0,1 mm 1 m/s 769 mmHg 89%
    21:00 +15°C° 0 mm 1 m/s 768 mmHg 90%
    22:00 +14°C° 0 mm 1 m/s 768 mmHg 92%
    23:00 +13°C° 0 mm 1 m/s 768 mmHg 93%

    26 Novembre, Dimanche

    Heure Température Précipitation Vent Pression Humidité
    00:00 +13°C° 0 mm 1 m/s 768 mmHg 94%
    01:00 +13°C° 0 mm 1 m/s 768 mmHg 95%
    02:00 +13°C° 0 mm 1 m/s 767 mmHg 96%
    03:00 +13°C° 0 mm 1 m/s 768 mmHg 95%
    04:00 +13°C° 0 mm 1 m/s 768 mmHg 95%
    05:00 +14°C° 0 mm 1 m/s 768 mmHg 94%
    06:00 +16°C° 0 mm 1 m/s 768 mmHg 84%
    07:00 +19°C° 0 mm 1 m/s 768 mmHg 74%
    08:00 +22°C° 0 mm 1 m/s 768 mmHg 64%
    09:00 +23°C° 0,1 mm 1 m/s 768 mmHg 61%
    10:00 +23°C° 0,1 mm 2 m/s 767 mmHg 58%
    11:00 +24°C° 0,1 mm 2 m/s 767 mmHg 55%
    12:00 +24°C° 0,2 mm 2 m/s 767 mmHg 56%
    13:00 +24°C° 0,2 mm 3 m/s 767 mmHg 58%
    14:00 +24°C° 0,2 mm 3 m/s 767 mmHg 59%
    15:00 +22°C° 0,1 mm 3 m/s 767 mmHg 60%
    16:00 +21°C° 0,1 mm 2 m/s 767 mmHg 62%
    17:00 +21°C° 0,1 mm 2 m/s 767 mmHg 63%
    18:00 +19°C° 0 mm 2 m/s 767 mmHg 72%
    19:00 +18°C° 0 mm 1 m/s 768 mmHg 81%
    20:00 +15°C° 0 mm 1 m/s 768 mmHg 90%
    21:00 +14°C° 0 mm 1 m/s 768 mmHg 92%
    22:00 +13°C° 0 mm 1 m/s 768 mmHg 95%
    23:00 +13°C° 0 mm 1 m/s 768 mmHg 97%

    27 Novembre, Lundi

    Heure Température Précipitation Vent Pression Humidité
    00:00 +13°C° 0 mm 1 m/s 768 mmHg 97%
    01:00 +12°C° 0 mm 1 m/s 768 mmHg 97%
    02:00 +12°C° 0 mm 1 m/s 768 mmHg 97%
    03:00 +12°C° 0 mm 1 m/s 768 mmHg 96%
    04:00 +13°C° 0 mm 1 m/s 768 mmHg 95%
    05:00 +13°C° 0 mm 1 m/s 768 mmHg 94%
    06:00 +16°C° 0 mm 1 m/s 768 mmHg 84%
    07:00 +20°C° 0 mm 1 m/s 769 mmHg 73%
    08:00 +22°C° 0 mm 1 m/s 769 mmHg 62%
    09:00 +24°C° 0 mm 1 m/s 769 mmHg 56%
    10:00 +25°C° 0 mm 1 m/s 768 mmHg 50%
    11:00 +27°C° 0 mm 2 m/s 768 mmHg 45%
    12:00 +26°C° 0 mm 2 m/s 768 mmHg 44%
    13:00 +26°C° 0 mm 2 m/s 768 mmHg 43%
    14:00 +26°C° 0 mm 3 m/s 768 mmHg 43%
    15:00 +25°C° 0 mm 3 m/s 768 mmHg 47%
    16:00 +24°C° 0 mm 3 m/s 768 mmHg 50%
    17:00 +23°C° 0 mm 2 m/s 768 mmHg 54%
    18:00 +19°C° 0 mm 2 m/s 769 mmHg 63%
    19:00 +18°C° 0 mm 1 m/s 769 mmHg 72%
    20:00 +15°C° 0 mm 1 m/s 769 mmHg 81%
    21:00 +14°C° 0 mm 1 m/s 770 mmHg 84%
    22:00 +14°C° 0 mm 1 m/s 770 mmHg 86%
    23:00 +13°C° 0 mm 1 m/s 770 mmHg 88%
    Voir plus